Location: Bukit Nyuki
(2.5885°N, 113.7476°E)
Time: 05:45:25
(UTC+00:00)

USA 215 - Pass Details

Date: 18 May 2021
Orbit: 1100 x 1107 km, 123.0° (Epoch: 14 June)

Event Time Altitude Azimuth Distance (km) Brightness Sun altitude
Rises 19:27:34 0° 126° (SE) 3,915 6.4 -39.2°
Reaches altitude 10° 19:30:16 10° 117° (ESE) 2,955 5.8 -38.6°
Maximum altitude 19:36:09 37° 53° (NE) 1,639 4.5 -37.3°
Drops below altitude 10° 19:42:02 10° 348° (NNW) 2,945 5.6 -36.0°
Sets 19:44:41 0° 340° (NNW) 3,901 6.2 -35.4°
